Paducah, KY

5:05 PM CDT on April 23, 2018 (GMT -0500)
Barkley Regional

Weather History for KPAH - June, 2013

Change the Weather History Date:

Saturday, June 22, 2013

  Actual Average Record
Temperature  
Mean Temperature 79 °F 77 °F  
Max Temperature 89 °F 88 °F 100 °F (1988)
Min Temperature 69 °F 67 °F 45 °F (1992)
Degree Days  
Heating Degree Days 0 0  
Month to date heating degree days 0 0  
Since 1 June heating degree days 0 0  
Since 1 July heating degree days 4210 4128  
Cooling Degree Days 14 12  
Month to date cooling degree days 207 214  
Year to date cooling degree days 385 386  
Since 1 June cooling degree days 207 214  
Growing Degree Days 30 (Base 50)    
Moisture  
Dew Point 67 °F    
Average Humidity 66    
Maximum Humidity 84    
Minimum Humidity 47    
Precipitation  
Precipitation 0.00 in 0.14 in 3.29 in (1979)
Month to date precipitation 7.65 2.97  
Year to date precipitation 33.12 24.19  
Snow  
Snow 0.00 in 0.00 in 0.00 in (2002)
Month to date snowfall 0.0 0.0  
Since 1 June snowfall 0.0 0.0  
Since 1 July snowfall 6.8 9.1  
Snow Depth 0.00 in    
Sea Level Pressure  
Sea Level Pressure 30.09 in    
Wind  
Wind Speed 5 mph (SSW)    
Max Wind Speed 20 mph    
Max Gust Speed 26 mph    
Visibility 10 miles    
Events      
T = Trace of Precipitation, MM = Missing Value Source: NWS Daily Summary

Daily Weather History Graph

Daily Weather History Graph

Search for Another Location

Airport or City:

Astronomy

Jun. 22, 2013 Rise Set
Actual Time 5:35 AM CDT 8:18 PM CDT
Civil Twilight 5:04 AM CDT 8:49 PM CDT
Nautical Twilight 4:26 AM CDT 9:27 PM CDT
Astronomical Twilight 3:42 AM CDT 10:11 PM CDT
Moon 7:34 PM CDT (6/22) 4:46 AM CDT (6/22)
Length of Visible Light 15h 44m
Length of Day
14h 42m
Waxing Gibbous, 99% of the Moon is Illuminated
Jun 22
Waxing Gibbous
Jun 23
Full
Jun 29
Last Quarter
Jul 8
New
Jul 15
First Quarter

Hourly Weather History & Observations

Time (CDT) Temp. Heat Index Dew Point Humidity Pressure Visibility Wind Dir Wind Speed Gust Speed Precip Events Conditions
12:53 AM 77.0 °F - 68.0 °F 74% 30.08 in 10.0 mi SSE 4.6 mph - N/A   Clear
1:53 AM 75.9 °F - 68.0 °F 76% 30.07 in 10.0 mi South 3.5 mph - N/A   Clear
2:53 AM 75.0 °F - 68.0 °F 79% 30.07 in 9.0 mi SSW 3.5 mph - N/A   Clear
3:53 AM 73.9 °F - 68.0 °F 82% 30.07 in 9.0 mi SSW 3.5 mph - N/A   Clear
4:53 AM 73.0 °F - 68.0 °F 84% 30.07 in 9.0 mi Calm Calm - N/A   Clear
5:53 AM 73.0 °F - 68.0 °F 84% 30.10 in 7.0 mi North - - N/A   Clear
6:53 AM 75.0 °F - 69.1 °F 82% 30.12 in 8.0 mi Variable 3.5 mph - N/A   Clear
7:53 AM 78.1 °F - 69.1 °F 74% 30.13 in 10.0 mi Variable 4.6 mph - N/A   Clear
8:53 AM 81.0 °F 84.1 °F 69.1 °F 67% 30.14 in 10.0 mi Variable 6.9 mph - N/A   Clear
9:53 AM 82.9 °F 86.5 °F 69.1 °F 63% 30.14 in 10.0 mi South 9.2 mph - N/A   Clear
10:53 AM 84.9 °F 88.8 °F 69.1 °F 59% 30.14 in 10.0 mi SSW 9.2 mph - N/A   Clear
11:53 AM 87.1 °F 90.6 °F 68.0 °F 53% 30.13 in 10.0 mi South 8.1 mph - N/A   Clear
12:53 PM 87.1 °F 91.3 °F 69.1 °F 55% 30.12 in 10.0 mi South 5.8 mph - N/A   Scattered Clouds
1:53 PM 88.0 °F 91.4 °F 68.0 °F 51% 30.09 in 10.0 mi Variable 6.9 mph 18.4 mph N/A   Mostly Cloudy
2:53 PM 89.1 °F 92.9 °F 68.0 °F 50% 30.06 in 10.0 mi SSW 8.1 mph - N/A   Clear
3:53 PM 89.1 °F 91.3 °F 66.0 °F 46% 30.05 in 10.0 mi SSW 5.8 mph - N/A   Clear
4:53 PM 88.0 °F 90.3 °F 66.0 °F 48% 30.04 in 10.0 mi Variable 5.8 mph - N/A   Partly Cloudy
5:53 PM 88.0 °F 90.3 °F 66.0 °F 48% 30.04 in 10.0 mi SSW 6.9 mph - N/A   Clear
6:53 PM 87.1 °F 89.2 °F 66.0 °F 49% 30.04 in 9.0 mi Calm Calm - N/A   Clear
7:53 PM 80.1 °F 82.9 °F 69.1 °F 69% 30.06 in 10.0 mi Calm Calm - N/A   Scattered Clouds
8:21 PM 77.0 °F - 64.4 °F 65% 30.09 in 10.0 mi North 11.5 mph - N/A   Mostly Cloudy
8:53 PM 75.9 °F - 64.0 °F 67% 30.08 in 10.0 mi NNW 8.1 mph - N/A   Scattered Clouds
9:53 PM 72.0 °F - 64.0 °F 76% 30.11 in 10.0 mi WNW 8.1 mph - N/A   Scattered Clouds
10:53 PM 70.0 °F - 64.9 °F 84% 30.08 in 10.0 mi Calm Calm - N/A   Clear
11:53 PM 70.0 °F - 64.0 °F 81% 30.02 in 10.0 mi South 8.1 mph - N/A   Clear